[[{"header":{"parameterUnit":"m.s-1","parameterCategory":1,"la1":30.2991,"la2":30.254,"lo1":-89.0895,"lo2":-89.0444,"dy":0.0017,"dx":0.0017,"nx":28,"ny":28,"refTime":"2025-05-01T09:00:00:Z","depth":0,"parameterNumber":2,"parameterNumberName":"U-component_of_WINDS"},"data":[0,0,0,0,0,0,0,0,0,0,0,0,0,0,0,0,0,0,0,0,0,0,0,0,0,0,0,0,0,0,0,0,0,0,0,0,0,0,0,0,0,0,0,0,0,0,0,0,0,0,0,0,0,0,0,0,0,0,-1.4038,-1.4041,0,-1.43,-1.4303,-1.4306,-1.439,-1.4389,-1.4388,-1.4387,-1.4664,-1.4672,-1.468,0,0,0,0,0,0,0,0,0,0,0,0,0,-1.3619,-1.3626,-1.4038,-1.4041,-1.4044,-1.43,-1.4304,-1.4307,-1.439,-1.4389,-1.4387,-1.4386,-1.4661,-1.4671,-1.4681,0,0,0,0,0,0,0,0,0,0,0,0,0,-1.3833,-1.3628,-1.4037,-1.4117,-1.4126,-1.4299,-1.4304,-1.4308,-1.4391,-1.4389,-1.4387,-1.4385,-1.4658,-1.467,-1.4683,-1.4798,0,0,-1.4722,-1.4727,0,0,0,0,0,0,0,0,-1.3821,-1.3848,-1.4102,-1.4111,-1.4123,-1.431,-1.4257,-1.4473,-1.4391,-1.4291,-1.4387,-1.4384,-1.4548,-1.457,-1.4623,-1.4811,-1.4823,-1.4723,-1.473,-1.4736,-1.474,0,0,0,0,0,0,0,-1.3806,-1.3838,-1.4142,-1.4105,-1.4118,-1.4142,-1.4171,-1.4299,-1.4427,-1.4299,-1.4306,-1.4335,-1.4554,-1.4611,-1.463,-1.4827,-1.4722,-1.4734,-1.4742,-1.4747,-1.5126,-1.5128,0,0,0,0,0,0,-1.3776,-1.3825,-1.4134,-1.415,-1.3964,-1.4151,-1.4183,-1.4252,-1.4426,-1.445,-1.4337,-1.4338,-1.459,-1.4615,-1.4641,-1.4789,-1.4736,-1.4748,-1.4755,-1.5123,-1.5126,-1.5129,0,0,0,0,0,0,-1.3767,-1.3803,-1.4123,-1.3989,-1.4032,-1.416,-1.4237,-1.4258,-1.4316,-1.4454,-1.4478,-1.4371,-1.4589,-1.4623,-1.4758,-1.48,-1.4754,-1.4765,-1.512,-1.5124,-1.5127,-1.5085,0,0,0,0,0,0,-1.3755,-1.3799,-1.3842,-1.3989,-1.4038,-1.4234,-1.424,-1.4265,-1.4336,-1.4341,-1.4492,-1.4516,-1.4591,-1.4739,-1.4771,-1.4816,-1.4775,-1.5117,-1.5122,-1.5126,-1.5083,-1.5087,-1.509,0,0,0,0,0,-1.3739,-1.3821,-1.3844,-1.3881,-1.4094,-1.4236,-1.4264,-1.4346,-1.4339,-1.4385,-1.4474,-1.4511,-1.4789,-1.4752,-1.4789,-1.4839,-1.5115,-1.5121,-1.5126,-1.5082,-1.5086,-1.5089,0,0,0,0,0,0,-1.3678,-1.3842,-1.3869,-1.4,-1.4103,-1.4249,-1.431,-1.4348,-1.4457,-1.4457,-1.4557,-1.4591,-1.4719,-1.4793,-1.4748,-1.4961,-1.4954,-1.4967,-1.4908,-1.4913,-1.4916,-1.4897,-1.4786,0,0,0,0,0,-1.3679,-1.3777,-1.3916,-1.4019,-1.4069,-1.418,-1.4245,-1.4299,-1.4411,-1.4456,-1.4555,-1.4664,-1.4777,-1.4849,-1.496,-1.5094,-1.513,-1.5147,-1.515,-1.5152,-1.5163,-1.5241,-1.5251,-1.5147,-1.5147,-1.5146,0,0,-1.3684,-1.3786,-1.3842,-1.4009,-1.4095,-1.4198,-1.4216,-1.4324,-1.4402,-1.4473,-1.4607,-1.4683,-1.4813,-1.4948,-1.5013,-1.5013,-1.5199,-1.5159,-1.5159,-1.5169,-1.5248,-1.5257,-1.5266,-1.515,-1.515,-1.5149,0,0,-1.3745,-1.383,-1.3926,-1.4012,-1.4141,-1.4214,-1.4237,-1.4378,-1.4431,-1.4566,-1.4622,-1.4718,-1.4909,-1.4999,-1.507,-1.5166,-1.5205,-1.52,-1.5217,-1.5292,-1.53,-1.5308,-1.5344,-1.5356,-1.521,-1.5209,-1.5209,0,-1.3736,-1.3889,-1.3971,-1.4076,-1.4149,-1.4215,-1.4315,-1.4395,-1.4555,-1.4605,-1.4603,-1.4845,-1.4937,-1.5095,-1.5118,-1.5173,-1.5205,-1.5183,-1.5292,-1.53,-1.5309,-1.5345,-1.5358,-1.5208,-1.5208,-1.5208,-1.5208,0,-1.3872,-1.3977,-1.404,-1.4189,-1.427,-1.4371,-1.4472,-1.4544,-1.4591,-1.4666,-1.4804,-1.4917,-1.5052,-1.5094,-1.5142,-1.526,-1.5257,-1.5271,-1.5267,-1.5316,-1.5351,-1.5366,-1.5206,-1.5207,-1.5207,-1.5207,0,0,-1.3902,-1.4095,-1.4117,-1.4187,-1.4334,-1.442,-1.4525,-1.4655,-1.4716,-1.4825,-1.4918,-1.5078,-1.5093,-1.5173,-1.5233,-1.5298,-1.537,-1.5306,-1.5311,-1.5315,-1.5509,-1.5497,-1.5512,-1.5395,-1.5398,-1.5401,-1.5499,0,-1.3983,-1.4171,-1.4249,-1.4402,-1.4503,-1.4568,-1.4661,-1.4763,-1.4836,-1.4934,-1.5016,-1.5128,-1.5139,-1.5188,-1.5256,-1.5346,-1.541,-1.534,-1.5486,-1.549,-1.5452,-1.553,-1.5518,-1.5605,-1.5513,-1.5515,-1.5517,0,-1.4103,-1.4209,-1.4372,-1.4508,-1.4553,-1.4634,-1.4761,-1.4853,-1.4972,-1.502,-1.5109,-1.5165,-1.5282,-1.5269,-1.5432,-1.5383,-1.5448,-1.5501,-1.5507,-1.5525,-1.5507,-1.5552,-1.5635,-1.5648,-1.5539,-1.5537,-1.5536,0,-1.4111,-1.4295,-1.4416,-1.4474,-1.4635,-1.4691,-1.4762,-1.4878,-1.4952,-1.5064,-1.5113,-1.5237,-1.5306,-1.5402,-1.5491,-1.5473,-1.5647,-1.5641,-1.5694,-1.5691,-1.5728,-1.5725,-1.5824,-1.5767,-1.5767,-1.5767,-1.5766,0,-1.4194,-1.4291,-1.4422,-1.4497,-1.4609,-1.4698,-1.4808,-1.4884,-1.4987,-1.508,-1.5145,-1.5231,-1.5343,-1.5445,-1.5515,-1.5641,-1.5672,-1.5717,-1.5735,-1.5712,-1.5706,-1.5756,-1.5753,-1.577,-1.577,-1.5769,-1.5768,0,-1.4222,-1.4313,-1.445,-1.4591,-1.4629,-1.4705,-1.4828,-1.4905,-1.4981,-1.5098,-1.5131,-1.5251,-1.5374,-1.5472,-1.5633,-1.5681,-1.5814,-1.5833,-1.5773,-1.5783,-1.583,-1.5825,-1.5967,-1.5991,-1.5915,-1.5916,-1.5916,0,-1.427,-1.4346,-1.4495,-1.456,-1.4629,-1.4734,-1.4809,-1.4901,-1.4977,-1.5118,-1.5179,-1.5306,-1.5413,-1.5607,-1.5711,-1.5835,-1.5859,-1.59,-1.5878,-1.5853,-1.5862,-1.5857,-1.5866,-1.5903,-1.5903,-1.5904,-1.5904,0,-1.4346,-1.4387,-1.449,-1.461,-1.4697,-1.4797,-1.4898,-1.4949,-1.506,-1.5143,-1.5268,-1.535,-1.5515,-1.5641,-1.5776,-1.5853,-1.5898,-1.5909,-1.5929,-1.5907,-1.5869,-1.5892,-1.5781,-1.5906,-1.5906,-1.5906,-1.5906,-1.5906,-1.4387,-1.4458,-1.4573,-1.4687,-1.4773,-1.4866,-1.4945,-1.503,-1.5135,-1.5274,-1.5322,-1.5452,-1.5571,-1.5757,-1.5834,-1.5939,-1.5942,-1.597,-1.5977,-1.5983,-1.5981,-1.5851,-1.5964,-1.5964,-1.5964,-1.5964,-1.5964,0,-1.4467,-1.4545,-1.4648,-1.4787,-1.4877,-1.4908,-1.5022,-1.5097,-1.5209,-1.5314,-1.5417,-1.5563,-1.5686,-1.5798,-1.5928,-1.599,-1.6014,-1.6021,-1.6019,-1.6036,-1.5969,-1.5941,-1.6,-1.6,-1.6,-1.6,-1.6,-1.6,-1.452,-1.4642,-1.4697,-1.4863,-1.4942,-1.5066,-1.5129,-1.5217,-1.5301,-1.5459,-1.5561,-1.5632,-1.5742,-1.588,-1.5996,-1.6026,-1.6072,-1.6073,-1.6109,-1.6045,-1.604,-1.6036,-1.6009,-1.6082,-1.6082,-1.6167,-1.6168,-1.6169]},{"header":{"parameterUnit":"m.s-1","parameterCategory":1,"la1":30.2991,"la2":30.254,"lo1":-89.0895,"lo2":-89.0444,"dy":0.0017,"dx":0.0017,"nx":28,"ny":28,"refTime":"2025-05-01T09:00:00:Z","depth":0,"parameterNumber":3,"parameterNumberName":"V-component_of_WINDS"},"data":[0,0,0,0,0,0,0,0,0,0,0,0,0,0,0,0,0,0,0,0,0,0,0,0,0,0,0,0,0,0,0,0,0,0,0,0,0,0,0,0,0,0,0,0,0,0,0,0,0,0,0,0,0,0,0,0,0,0,5.7416,5.7417,0,5.7501,5.7501,5.7502,5.7453,5.7451,5.7448,5.7446,5.7525,5.7529,5.7534,0,0,0,0,0,0,0,0,0,0,0,0,0,5.7205,5.7209,5.7416,5.7417,5.7419,5.75,5.7501,5.7503,5.7454,5.7451,5.7448,5.7445,5.7524,5.7529,5.7534,0,0,0,0,0,0,0,0,0,0,0,0,0,5.7294,5.7211,5.7416,5.7404,5.7404,5.75,5.7502,5.7503,5.7454,5.7451,5.7447,5.7444,5.7522,5.7528,5.7535,5.7646,0,0,5.7555,5.7557,0,0,0,0,0,0,0,0,5.7289,5.7301,5.7405,5.7405,5.7405,5.7463,5.7456,5.7551,5.7455,5.7435,5.7446,5.7442,5.7507,5.7514,5.7538,5.7649,5.7653,5.7555,5.7559,5.7562,5.7564,0,0,0,0,0,0,0,5.7283,5.7297,5.7449,5.7406,5.7406,5.7392,5.74,5.7474,5.7489,5.7436,5.7433,5.7444,5.7506,5.7532,5.7539,5.7654,5.7555,5.7561,5.7565,5.7567,5.7857,5.7861,0,0,0,0,0,0,5.7278,5.7293,5.7447,5.7452,5.7337,5.7398,5.7408,5.7448,5.7489,5.7492,5.7447,5.7441,5.7522,5.7532,5.7542,5.7672,5.7562,5.7568,5.7572,5.7853,5.7858,5.7862,0,0,0,0,0,0,5.7274,5.7293,5.7443,5.7372,5.739,5.7406,5.7451,5.7451,5.7477,5.7497,5.7498,5.7471,5.752,5.7533,5.762,5.7674,5.7571,5.7577,5.7849,5.7855,5.786,5.7934,0,0,0,0,0,0,5.7268,5.7291,5.7336,5.7373,5.7394,5.7523,5.7454,5.7455,5.7489,5.7482,5.7519,5.7522,5.7518,5.7611,5.7626,5.7681,5.7582,5.7844,5.7852,5.7858,5.7927,5.7942,5.7955,0,0,0,0,0,5.7261,5.7352,5.7338,5.7357,5.745,5.7526,5.7538,5.7533,5.7494,5.7536,5.7549,5.7521,5.7666,5.762,5.7637,5.7695,5.7841,5.7849,5.7858,5.7921,5.7939,5.7954,0,0,0,0,0,0,5.7319,5.7357,5.7342,5.7449,5.7485,5.7518,5.7572,5.7553,5.7599,5.7591,5.7582,5.759,5.7681,5.7697,5.7645,5.7802,5.7747,5.7759,5.7789,5.7806,5.782,5.7813,5.7587,0,0,0,0,0,5.7344,5.7406,5.7435,5.7526,5.7545,5.7556,5.7589,5.7583,5.7618,5.7633,5.7652,5.7686,5.7738,5.7773,5.7824,5.793,5.7935,5.7977,5.7991,5.8002,5.8012,5.8067,5.8085,5.789,5.789,5.789,0,0,5.7397,5.7426,5.7464,5.7538,5.7566,5.7626,5.7569,5.7636,5.768,5.7642,5.7726,5.7741,5.7778,5.7874,5.7918,5.789,5.8068,5.8013,5.8022,5.8026,5.8077,5.8096,5.8112,5.7896,5.7895,5.7894,0,0,5.7524,5.7553,5.7631,5.766,5.7702,5.7709,5.7727,5.7763,5.7772,5.7857,5.7829,5.788,5.7972,5.7999,5.8024,5.816,5.8135,5.8177,5.8247,5.83,5.8316,5.8329,5.8375,5.8391,5.8187,5.8187,5.8187,0,5.7583,5.7676,5.7673,5.7742,5.7774,5.7745,5.7822,5.7849,5.7905,5.7926,5.7895,5.8009,5.8032,5.8133,5.8166,5.8189,5.8207,5.8171,5.8314,5.8328,5.834,5.8383,5.8401,5.8192,5.8191,5.8191,5.819,0,5.7745,5.781,5.7867,5.7924,5.7962,5.8035,5.804,5.8079,5.8069,5.8078,5.8162,5.8189,5.8243,5.8267,5.8257,5.8366,5.8347,5.8316,5.8259,5.8363,5.8404,5.842,5.8199,5.8197,5.8195,5.8194,0,0,5.791,5.7964,5.7985,5.8009,5.8053,5.8102,5.8172,5.8227,5.8258,5.8298,5.8354,5.8433,5.8403,5.8433,5.8426,5.8473,5.8575,5.8435,5.8436,5.8458,5.8692,5.8714,5.8733,5.8559,5.8562,5.8565,5.8688,0,5.8037,5.8162,5.8161,5.8275,5.8333,5.8306,5.8366,5.8398,5.8408,5.8456,5.8466,5.8521,5.848,5.8496,5.8542,5.8553,5.8621,5.8544,5.8608,5.861,5.8597,5.8755,5.8778,5.8894,5.8704,5.8707,5.8709,0,5.8202,5.8249,5.837,5.8404,5.8428,5.8483,5.8531,5.8579,5.8614,5.8617,5.865,5.8635,5.8703,5.8646,5.8738,5.8685,5.8711,5.872,5.8725,5.8728,5.8664,5.876,5.893,5.8947,5.8734,5.8732,5.873,0,5.8307,5.8399,5.8483,5.8505,5.8548,5.8586,5.8605,5.8637,5.8669,5.8711,5.8731,5.878,5.8806,5.8842,5.884,5.88,5.8932,5.8876,5.8934,5.8934,5.8961,5.8959,5.9135,5.8982,5.8982,5.8982,5.8981,0,5.8448,5.8522,5.853,5.8581,5.8663,5.8659,5.8739,5.8754,5.8782,5.8833,5.8812,5.886,5.8855,5.8903,5.8902,5.8976,5.8988,5.8991,5.8989,5.8991,5.8991,5.9006,5.8997,5.8986,5.8985,5.8984,5.8984,0,5.8578,5.8587,5.8676,5.8709,5.8719,5.8777,5.8804,5.8851,5.8859,5.8924,5.8939,5.895,5.9005,5.9007,5.907,5.9068,5.9158,5.9149,5.9147,5.9144,5.9201,5.9195,5.9392,5.9416,5.925,5.9251,5.9253,0,5.8666,5.8723,5.8762,5.8796,5.8818,5.8873,5.8906,5.8904,5.8938,5.8982,5.9022,5.9076,5.9118,5.9206,5.9218,5.9265,5.9255,5.9321,5.9262,5.9262,5.9253,5.9248,5.9253,5.9331,5.9333,5.9335,5.9336,0,5.8821,5.8822,5.8872,5.8923,5.8964,5.9003,5.904,5.9068,5.9069,5.9109,5.9166,5.9199,5.9263,5.9315,5.936,5.9376,5.9356,5.9355,5.937,5.9372,5.9368,5.9368,5.9175,5.935,5.9348,5.9347,5.9347,5.9346,5.8931,5.8979,5.9014,5.9069,5.9097,5.9131,5.9177,5.9191,5.9239,5.9292,5.9287,5.9349,5.938,5.9439,5.9459,5.9506,5.9483,5.9506,5.9511,5.9516,5.9521,5.9363,5.9514,5.9514,5.9514,5.9513,5.9513,0,5.9082,5.9104,5.9155,5.9207,5.925,5.923,5.9268,5.9304,5.936,5.9392,5.9434,5.9497,5.9547,5.9564,5.9611,5.9645,5.9636,5.9657,5.9653,5.9657,5.954,5.9521,5.9663,5.9663,5.9663,5.9663,5.9663,5.9663,5.9166,5.9246,5.9251,5.9343,5.9363,5.9425,5.9448,5.9479,5.9504,5.9576,5.9619,5.963,5.9654,5.9703,5.9747,5.975,5.9767,5.9791,5.979,5.9681,5.9666,5.9651,5.9633,5.9796,5.9796,5.9903,5.9904,5.9904]}]]